Danvers, MA

1:30 PM EDT on July 29, 2016 (GMT -0400)
Beverly Municipal

Weather History for KBVY - August, 2013

Change the Weather History Date:

Sunday, August 18, 2013

  Actual Average Record
Temperature  
Mean Temperature 68 °F -  
Max Temperature 79 °F 78 °F 93 °F (2002)
Min Temperature 59 °F 58 °F 51 °F (2005)
Cooling Degree Days 4    
Growing Degree Days 18 (Base 50)    
Moisture  
Dew Point 59 °F    
Average Humidity 73    
Maximum Humidity 90    
Minimum Humidity 58    
Precipitation  
Precipitation 0.00 in - - ()
Sea Level Pressure  
Sea Level Pressure 30.19 in    
Wind  
Wind Speed 2 mph (South)    
Max Wind Speed 7 mph    
Max Gust Speed -    
Visibility 10 miles    
Events      
Averages and records for this station are not official NWS values.
T = Trace of Precipitation, MM = Missing Value Source: NWS Daily Summary

Daily Weather History Graph

Daily Weather History Graph

Search for Another Location

Airport or City:

Trip Planner

Search our weather history database for the weather conditions in past years. The results will help you decide how hot, cold, wet, or windy it might be!

Date:

Astronomy

Aug. 18, 2013 Rise Set
Actual Time 5:53 AM EDT 7:40 PM EDT
Civil Twilight 5:23 AM EDT 8:10 PM EDT
Nautical Twilight 4:47 AM EDT 8:46 PM EDT
Astronomical Twilight 4:07 AM EDT 9:26 PM EDT
Moon 5:45 PM EDT (8/18) 2:57 AM EDT (8/18)
Length of Visible Light 14h 46m
Length of Day
13h 46m
Waxing Gibbous, 92% of the Moon is Illuminated
Aug 18
Waxing Gibbous
Aug 20
Full
Aug 28
Last Quarter
Sep 5
New
Sep 12
First Quarter

Hourly Weather History & Observations

Time (EDT) Temp. Dew Point Humidity Pressure Visibility Wind Dir Wind Speed Gust Speed Precip Events Conditions
12:53 AM 60.1 °F 57.0 °F 90% 30.25 in 10.0 mi Calm Calm - N/A   Partly Cloudy
1:53 AM 59.0 °F 55.9 °F 90% 30.25 in 10.0 mi Calm Calm - N/A   Partly Cloudy
2:53 AM 59.0 °F 55.9 °F 90% 30.25 in 10.0 mi Calm Calm - N/A   Partly Cloudy
3:53 AM 62.1 °F 57.9 °F 86% 30.25 in 10.0 mi Calm Calm - N/A   Overcast
4:53 AM 61.0 °F 57.9 °F 90% 30.25 in 10.0 mi Calm Calm - N/A   Overcast
5:53 AM 60.1 °F 57.0 °F 90% 30.24 in 10.0 mi Calm Calm - N/A   Clear
6:53 AM 61.0 °F 57.9 °F 90% 30.25 in 10.0 mi NNW 3.5 mph - N/A   Clear
7:53 AM 66.9 °F 60.1 °F 79% 30.25 in 10.0 mi Calm Calm - N/A   Clear
8:53 AM 72.0 °F 62.1 °F 71% 30.25 in 10.0 mi Calm Calm - N/A   Clear
9:53 AM 73.9 °F 59.0 °F 59% 30.24 in 10.0 mi Calm Calm - N/A   Clear
10:53 AM 77.0 °F 61.0 °F 58% 30.24 in 10.0 mi South 3.5 mph - N/A   Mostly Cloudy
11:53 AM 78.1 °F 63.0 °F 60% 30.23 in 10.0 mi SE 5.8 mph - N/A   Clear
12:53 PM 73.0 °F 60.1 °F 64% 30.22 in 10.0 mi SSE 6.9 mph - N/A   Mostly Cloudy
1:53 PM 75.0 °F 61.0 °F 62% 30.20 in 10.0 mi SSE 5.8 mph - N/A   Partly Cloudy
1:57 PM 75.2 °F 60.8 °F 61% 30.21 in 10.0 mi South 4.6 mph - N/A   Overcast
2:31 PM 75.2 °F 60.8 °F 61% 30.20 in 10.0 mi Variable 4.6 mph - N/A   Overcast
2:53 PM 75.9 °F 61.0 °F 60% 30.17 in 10.0 mi SSE 5.8 mph - N/A   Overcast
3:53 PM 73.9 °F 61.0 °F 64% 30.15 in 10.0 mi SSE 4.6 mph - N/A   Mostly Cloudy
4:53 PM 73.0 °F 59.0 °F 61% 30.13 in 10.0 mi SSE 6.9 mph - N/A   Mostly Cloudy
5:53 PM 71.1 °F 61.0 °F 70% 30.12 in 10.0 mi SE 3.5 mph - N/A   Overcast
6:53 PM 70.0 °F 62.1 °F 76% 30.11 in 10.0 mi SSE 4.6 mph - N/A   Overcast
7:53 PM 68.0 °F 61.0 °F 78% 30.11 in 10.0 mi Calm Calm - N/A   Mostly Cloudy
8:53 PM 66.9 °F 57.9 °F 73% 30.11 in 10.0 mi SW 5.8 mph - N/A   Clear
9:53 PM 68.0 °F 57.0 °F 68% 30.09 in 10.0 mi SW 5.8 mph - N/A   Clear
10:53 PM 66.0 °F 55.9 °F 70% 30.08 in 10.0 mi Calm Calm - N/A   Clear
11:53 PM 64.0 °F 55.9 °F 75% 30.07 in 10.0 mi SSW 3.5 mph - N/A   Clear